owner,sensor,date,latitude,longitude,vertical_datum,sea_water_speed,direction_of_sea_water_velocity,upward_sea_water_velocity,qcFlag
Shell,ioos:station:wmo:42403:2,2024-04-01T00:07:00Z,28.0256,-89.2092,22.2,22.6,11111222
Shell,ioos:station:wmo:42403:2,2024-04-01T00:17:00Z,28.0256,-89.2092,22.2,22.6,11111222
Shell,ioos:station:wmo:42403:2,2024-04-01T00:27:00Z,28.0256,-89.2092,22.3,22.6,11111222
Shell,ioos:station:wmo:42403:2,2024-04-01T00:37:00Z,28.0256,-89.2092,22.4,22.6,11111222
Shell,ioos:station:wmo:42403:2,2024-04-01T00:47:00Z,28.0256,-89.2092,22.5,22.6,11111222
Shell,ioos:station:wmo:42403:2,2024-04-01T00:57:00Z,28.0256,-89.2092,22.5,22.6,11111222
Shell,ioos:station:wmo:42403:2,2024-04-01T01:07:00Z,28.0256,-89.2092,22.5,22.6,11111222
Shell,ioos:station:wmo:42403:2,2024-04-01T01:17:00Z,28.0256,-89.2092,22.5,22.6,11111222
Shell,ioos:station:wmo:42403:2,2024-04-01T01:27:00Z,28.0256,-89.2092,22.5,22.7,11111222
Shell,ioos:station:wmo:42403:2,2024-04-01T01:37:00Z,28.0256,-89.2092,22.5,22.7,11111222
Shell,ioos:station:wmo:42403:2,2024-04-01T01:57:00Z,28.0256,-89.2092,22.5,22.8,11111222
Shell,ioos:station:wmo:42403:2,2024-04-01T02:07:00Z,28.0256,-89.2092,22.5,22.8,11111222
Shell,ioos:station:wmo:42403:2,2024-04-01T02:17:00Z,28.0256,-89.2092,22.5,22.8,11111222
Shell,ioos:station:wmo:42403:2,2024-04-01T02:27:00Z,28.0256,-89.2092,22.5,22.8,11111222
Shell,ioos:station:wmo:42403:2,2024-04-01T02:37:00Z,28.0256,-89.2092,22.5,22.7,11111222
Shell,ioos:station:wmo:42403:2,2024-04-01T02:47:00Z,28.0256,-89.2092,22.5,22.7,11111222
Shell,ioos:station:wmo:42403:2,2024-04-01T02:57:00Z,28.0256,-89.2092,22.5,22.7,11111222
Shell,ioos:station:wmo:42403:2,2024-04-01T03:07:00Z,28.0256,-89.2092,22.5,22.7,11111222
Shell,ioos:station:wmo:42403:2,2024-04-01T03:17:00Z,28.0256,-89.2092,22.5,22.7,11111222
Shell,ioos:station:wmo:42403:2,2024-04-01T03:27:00Z,28.0256,-89.2092,22.5,22.8,11111222
Shell,ioos:station:wmo:42403:2,2024-04-01T03:37:00Z,28.0256,-89.2092,22.5,22.8,11111222
Shell,ioos:station:wmo:42403:2,2024-04-01T03:47:00Z,28.0256,-89.2092,22.5,22.8,11111222
Shell,ioos:station:wmo:42403:2,2024-04-01T03:57:00Z,28.0256,-89.2092,22.5,22.8,11111222
Shell,ioos:station:wmo:42403:2,2024-04-01T04:07:00Z,28.0256,-89.2092,22.5,22.7,11111222
Shell,ioos:station:wmo:42403:2,2024-04-01T04:17:00Z,28.0256,-89.2092,22.5,22.8,11111222
Shell,ioos:station:wmo:42403:2,2024-04-01T04:27:00Z,28.0256,-89.2092,22.5,22.8,11111222
Shell,ioos:station:wmo:42403:2,2024-04-01T04:37:00Z,28.0256,-89.2092,22.5,22.9,11111222
Shell,ioos:station:wmo:42403:2,2024-04-01T04:47:00Z,28.0256,-89.2092,22.5,22.9,11111222
Shell,ioos:station:wmo:42403:2,2024-04-01T04:57:00Z,28.0256,-89.2092,22.5,23.0,11111222
Shell,ioos:station:wmo:42403:2,2024-04-01T05:07:00Z,28.0256,-89.2092,22.5,23.1,11111222
Shell,ioos:station:wmo:42403:2,2024-04-01T05:17:00Z,28.0256,-89.2092,22.5,23.1,11111222
Shell,ioos:station:wmo:42403:2,2024-04-01T05:27:00Z,28.0256,-89.2092,22.5,23.2,11111222
Shell,ioos:station:wmo:42403:2,2024-04-01T05:37:00Z,28.0256,-89.2092,22.5,23.2,11111222
Shell,ioos:station:wmo:42403:2,2024-04-01T05:47:00Z,28.0256,-89.2092,22.5,23.3,11111222
Shell,ioos:station:wmo:42403:2,2024-04-01T05:57:00Z,28.0256,-89.2092,22.5,23.3,11111222
Shell,ioos:station:wmo:42403:2,2024-04-01T06:07:00Z,28.0256,-89.2092,22.5,23.3,11111222
Shell,ioos:station:wmo:42403:2,2024-04-01T06:17:00Z,28.0256,-89.2092,22.5,23.3,11111222
Shell,ioos:station:wmo:42403:2,2024-04-01T06:27:00Z,28.0256,-89.2092,22.5,23.3,11111222
Shell,ioos:station:wmo:42403:2,2024-04-01T06:37:00Z,28.0256,-89.2092,22.5,23.4,11111222
Shell,ioos:station:wmo:42403:2,2024-04-01T06:47:00Z,28.0256,-89.2092,22.5,23.5,11111222
Shell,ioos:station:wmo:42403:2,2024-04-01T06:57:00Z,28.0256,-89.2092,22.5,23.6,11111222
Shell,ioos:station:wmo:42403:2,2024-04-01T07:07:00Z,28.0256,-89.2092,22.5,23.6,11111222
Shell,ioos:station:wmo:42403:2,2024-04-01T07:17:00Z,28.0256,-89.2092,22.5,23.6,11111222
Shell,ioos:station:wmo:42403:2,2024-04-01T07:27:00Z,28.0256,-89.2092,22.5,23.6,11111222
Shell,ioos:station:wmo:42403:2,2024-04-01T07:37:00Z,28.0256,-89.2092,22.5,23.6,11111222
Shell,ioos:station:wmo:42403:2,2024-04-01T07:47:00Z,28.0256,-89.2092,22.5,23.6,11111222
Shell,ioos:station:wmo:42403:2,2024-04-01T07:57:00Z,28.0256,-89.2092,22.5,23.5,11111222
Shell,ioos:station:wmo:42403:2,2024-04-01T08:07:00Z,28.0256,-89.2092,22.5,23.5,11111222
Shell,ioos:station:wmo:42403:2,2024-04-01T08:17:00Z,28.0256,-89.2092,22.5,23.5,11111222
Shell,ioos:station:wmo:42403:2,2024-04-01T08:27:00Z,28.0256,-89.2092,22.5,23.5,11111222
Shell,ioos:station:wmo:42403:2,2024-04-01T08:37:00Z,28.0256,-89.2092,22.5,23.5,11111222
Shell,ioos:station:wmo:42403:2,2024-04-01T08:47:00Z,28.0256,-89.2092,22.5,23.4,11111222
Shell,ioos:station:wmo:42403:2,2024-04-01T08:57:00Z,28.0256,-89.2092,22.5,23.5,11111222
Shell,ioos:station:wmo:42403:2,2024-04-01T09:07:00Z,28.0256,-89.2092,22.5,23.5,11111222
Shell,ioos:station:wmo:42403:2,2024-04-01T09:17:00Z,28.0256,-89.2092,22.5,23.5,11111222
Shell,ioos:station:wmo:42403:2,2024-04-01T09:27:00Z,28.0256,-89.2092,22.5,23.6,11111222
Shell,ioos:station:wmo:42403:2,2024-04-01T09:37:00Z,28.0256,-89.2092,22.5,23.6,11111222
Shell,ioos:station:wmo:42403:2,2024-04-01T09:47:00Z,28.0256,-89.2092,22.5,23.6,11111222
Shell,ioos:station:wmo:42403:2,2024-04-01T09:57:00Z,28.0256,-89.2092,22.5,23.6,11111222
Shell,ioos:station:wmo:42403:2,2024-04-01T10:07:00Z,28.0256,-89.2092,22.5,23.6,11111222
Shell,ioos:station:wmo:42403:2,2024-04-01T10:57:00Z,28.0256,-89.2092,22.5,23.5,11111222
Shell,ioos:station:wmo:42403:2,2024-04-01T11:07:00Z,28.0256,-89.2092,22.5,23.5,11111222
Shell,ioos:station:wmo:42403:2,2024-04-01T11:27:00Z,28.0256,-89.2092,22.5,23.5,11111222
Shell,ioos:station:wmo:42403:2,2024-04-01T11:37:00Z,28.0256,-89.2092,22.5,23.4,11111222
Shell,ioos:station:wmo:42403:2,2024-04-01T11:47:00Z,28.0256,-89.2092,22.5,23.4,11111222
Shell,ioos:station:wmo:42403:2,2024-04-01T11:57:00Z,28.0256,-89.2092,22.5,23.4,11111222
Shell,ioos:station:wmo:42403:2,2024-04-01T12:27:00Z,28.0256,-89.2092,22.5,23.4,11111222
Shell,ioos:station:wmo:42403:2,2024-04-01T12:37:00Z,28.0256,-89.2092,22.5,23.4,11111222
Shell,ioos:station:wmo:42403:2,2024-04-01T13:07:00Z,28.0256,-89.2092,22.4,23.3,11111222
Shell,ioos:station:wmo:42403:2,2024-04-01T13:27:00Z,28.0256,-89.2092,22.3,23.3,11111222
Shell,ioos:station:wmo:42403:2,2024-04-01T13:37:00Z,28.0256,-89.2092,22.3,23.3,11111222
Shell,ioos:station:wmo:42403:2,2024-04-01T13:57:00Z,28.0256,-89.2092,22.3,23.3,11111222
Shell,ioos:station:wmo:42403:2,2024-04-01T14:07:00Z,28.0256,-89.2092,22.3,23.3,11111222
Shell,ioos:station:wmo:42403:2,2024-04-01T14:37:00Z,28.0256,-89.2092,22.3,23.3,11111222
Shell,ioos:station:wmo:42403:2,2024-04-01T14:47:00Z,28.0256,-89.2092,22.3,23.2,11111222
Shell,ioos:station:wmo:42403:2,2024-04-01T14:57:00Z,28.0256,-89.2092,22.3,23.2,11111222
Shell,ioos:station:wmo:42403:2,2024-04-01T15:07:00Z,28.0256,-89.2092,22.3,23.2,11111222
Shell,ioos:station:wmo:42403:2,2024-04-01T15:17:00Z,28.0256,-89.2092,22.4,23.2,11111222
Shell,ioos:station:wmo:42403:2,2024-04-01T15:47:00Z,28.0256,-89.2092,22.3,23.2,11111222
Shell,ioos:station:wmo:42403:2,2024-04-01T15:57:00Z,28.0256,-89.2092,22.3,23.2,11111222
Shell,ioos:station:wmo:42403:2,2024-04-01T16:27:00Z,28.0256,-89.2092,22.4,23.1,11111222
Shell,ioos:station:wmo:42403:2,2024-04-01T16:37:00Z,28.0256,-89.2092,22.4,23.1,11111222
Shell,ioos:station:wmo:42403:2,2024-04-01T16:47:00Z,28.0256,-89.2092,22.4,23.1,11111222
Shell,ioos:station:wmo:42403:2,2024-04-01T16:57:00Z,28.0256,-89.2092,22.4,23.1,11111222
Shell,ioos:station:wmo:42403:2,2024-04-01T17:07:00Z,28.0256,-89.2092,22.4,23.1,11111222
Shell,ioos:station:wmo:42403:2,2024-04-01T17:17:00Z,28.0256,-89.2092,22.3,23.1,11111222
Shell,ioos:station:wmo:42403:2,2024-04-01T17:27:00Z,28.0256,-89.2092,22.3,23.1,11111222
Shell,ioos:station:wmo:42403:2,2024-04-01T17:37:00Z,28.0256,-89.2092,22.3,23.1,11111222
Shell,ioos:station:wmo:42403:2,2024-04-01T17:47:00Z,28.0256,-89.2092,22.3,23.0,11111222
Shell,ioos:station:wmo:42403:2,2024-04-01T17:57:00Z,28.0256,-89.2092,22.3,23.0,11111222
Shell,ioos:station:wmo:42403:2,2024-04-01T18:07:00Z,28.0256,-89.2092,22.3,23.0,11111222
Shell,ioos:station:wmo:42403:2,2024-04-01T18:17:00Z,28.0256,-89.2092,22.3,23.0,11111222
Shell,ioos:station:wmo:42403:2,2024-04-01T18:27:00Z,28.0256,-89.2092,22.3,22.9,11111222
Shell,ioos:station:wmo:42403:2,2024-04-01T18:37:00Z,28.0256,-89.2092,22.3,22.9,11111222
Shell,ioos:station:wmo:42403:2,2024-04-01T18:47:00Z,28.0256,-89.2092,22.3,22.9,11111222
Shell,ioos:station:wmo:42403:2,2024-04-01T18:57:00Z,28.0256,-89.2092,22.3,22.8,11111222
Shell,ioos:station:wmo:42403:2,2024-04-01T19:17:00Z,28.0256,-89.2092,22.3,22.8,11111222
Shell,ioos:station:wmo:42403:2,2024-04-01T19:27:00Z,28.0256,-89.2092,22.3,22.8,11111222
Shell,ioos:station:wmo:42403:2,2024-04-01T19:37:00Z,28.0256,-89.2092,22.3,22.8,11111222
Shell,ioos:station:wmo:42403:2,2024-04-01T19:47:00Z,28.0256,-89.2092,22.3,22.7,11111222
Shell,ioos:station:wmo:42403:2,2024-04-01T19:57:00Z,28.0256,-89.2092,22.3,22.7,11111222
Shell,ioos:station:wmo:42403:2,2024-04-01T20:07:00Z,28.0256,-89.2092,22.3,22.6,11111222
Shell,ioos:station:wmo:42403:2,2024-04-01T20:17:00Z,28.0256,-89.2092,22.3,22.6,11111222
Shell,ioos:station:wmo:42403:2,2024-04-01T20:27:00Z,28.0256,-89.2092,22.3,22.6,11111222
Shell,ioos:station:wmo:42403:2,2024-04-01T20:37:00Z,28.0256,-89.2092,22.3,22.5,11111222
Shell,ioos:station:wmo:42403:2,2024-04-01T20:47:00Z,28.0256,-89.2092,22.3,22.5,11111222
Shell,ioos:station:wmo:42403:2,2024-04-01T20:57:00Z,28.0256,-89.2092,22.3,22.4,11111222
Shell,ioos:station:wmo:42403:2,2024-04-01T21:07:00Z,28.0256,-89.2092,22.3,22.2,11111222
Shell,ioos:station:wmo:42403:2,2024-04-01T21:17:00Z,28.0256,-89.2092,22.3,22.2,11111222
Shell,ioos:station:wmo:42403:2,2024-04-01T21:27:00Z,28.0256,-89.2092,22.3,22.1,11111222
Shell,ioos:station:wmo:42403:2,2024-04-01T21:37:00Z,28.0256,-89.2092,22.3,22.1,11111222
Shell,ioos:station:wmo:42403:2,2024-04-01T21:47:00Z,28.0256,-89.2092,22.3,22.1,11111222
Shell,ioos:station:wmo:42403:2,2024-04-01T21:57:00Z,28.0256,-89.2092,22.3,22.0,11111222
Shell,ioos:station:wmo:42403:2,2024-04-01T22:07:00Z,28.0256,-89.2092,22.3,22.0,11111222
Shell,ioos:station:wmo:42403:2,2024-04-01T22:17:00Z,28.0256,-89.2092,22.3,21.9,11111222
Shell,ioos:station:wmo:42403:2,2024-04-01T22:27:00Z,28.0256,-89.2092,22.3,21.9,11111222
Shell,ioos:station:wmo:42403:2,2024-04-01T22:37:00Z,28.0256,-89.2092,22.3,21.9,11111222
Shell,ioos:station:wmo:42403:2,2024-04-01T22:47:00Z,28.0256,-89.2092,22.2,21.9,11111222
Shell,ioos:station:wmo:42403:2,2024-04-01T22:57:00Z,28.0256,-89.2092,22.3,21.9,11111222
Shell,ioos:station:wmo:42403:2,2024-04-01T23:07:00Z,28.0256,-89.2092,22.3,21.8,11111222
Shell,ioos:station:wmo:42403:2,2024-04-01T23:17:00Z,28.0256,-89.2092,22.3,21.8,11111222
Shell,ioos:station:wmo:42403:2,2024-04-01T23:27:00Z,28.0256,-89.2092,22.2,21.8,11111222
Shell,ioos:station:wmo:42403:2,2024-04-01T23:37:00Z,28.0256,-89.2092,22.2,21.8,11111222
Shell,ioos:station:wmo:42403:2,2024-04-01T23:47:00Z,28.0256,-89.2092,22.2,21.8,11111222
Shell,ioos:station:wmo:42403:2,2024-04-01T23:57:00Z,28.0256,-89.2092,22.2,21.8,11111222
Shell,ioos:station:wmo:42403:2,2024-04-02T00:07:00Z,28.0256,-89.2092,22.2,21.8,11111222
Shell,ioos:station:wmo:42403:2,2024-04-02T00:17:00Z,28.0256,-89.2092,22.3,21.8,11111222
Shell,ioos:station:wmo:42403:2,2024-04-02T00:27:00Z,28.0256,-89.2092,22.2,21.8,11111222
Shell,ioos:station:wmo:42403:2,2024-04-02T00:37:00Z,28.0256,-89.2092,22.2,21.8,11111222
Shell,ioos:station:wmo:42403:2,2024-04-02T00:47:00Z,28.0256,-89.2092,22.2,21.8,11111222
Shell,ioos:station:wmo:42403:2,2024-04-02T00:57:00Z,28.0256,-89.2092,22.2,21.8,11111222
Shell,ioos:station:wmo:42403:2,2024-04-02T01:07:00Z,28.0256,-89.2092,22.2,21.8,11111222
Shell,ioos:station:wmo:42403:2,2024-04-02T01:17:00Z,28.0256,-89.2092,22.2,21.8,11111222
Shell,ioos:station:wmo:42403:2,2024-04-02T01:27:00Z,28.0256,-89.2092,22.2,21.9,11111222
Shell,ioos:station:wmo:42403:2,2024-04-02T01:37:00Z,28.0256,-89.2092,22.2,21.9,11111222
Shell,ioos:station:wmo:42403:2,2024-04-02T01:47:00Z,28.0256,-89.2092,22.2,21.9,11111222
Shell,ioos:station:wmo:42403:2,2024-04-02T01:57:00Z,28.0256,-89.2092,22.2,22.0,11111222
Shell,ioos:station:wmo:42403:2,2024-04-02T02:17:00Z,28.0256,-89.2092,22.2,22.0,11111222
Shell,ioos:station:wmo:42403:2,2024-04-02T02:27:00Z,28.0256,-89.2092,22.2,22.1,11111222
Shell,ioos:station:wmo:42403:2,2024-04-02T02:37:00Z,28.0256,-89.2092,22.2,22.1,11111222
Shell,ioos:station:wmo:42403:2,2024-04-02T02:47:00Z,28.0256,-89.2092,22.2,22.1,11111222
Shell,ioos:station:wmo:42403:2,2024-04-02T02:57:00Z,28.0256,-89.2092,22.2,22.1,11111222
Shell,ioos:station:wmo:42403:2,2024-04-02T03:07:00Z,28.0256,-89.2092,22.2,22.1,11111222
Shell,ioos:station:wmo:42403:2,2024-04-02T03:17:00Z,28.0256,-89.2092,22.2,22.1,11111222
Shell,ioos:station:wmo:42403:2,2024-04-02T03:27:00Z,28.0256,-89.2092,22.2,22.1,11111222
Shell,ioos:station:wmo:42403:2,2024-04-02T03:37:00Z,28.0256,-89.2092,22.2,22.1,11111222
Shell,ioos:station:wmo:42403:2,2024-04-02T03:47:00Z,28.0256,-89.2092,22.2,22.1,11111222
Shell,ioos:station:wmo:42403:2,2024-04-02T03:57:00Z,28.0256,-89.2092,22.2,22.0,11111222
Shell,ioos:station:wmo:42403:2,2024-04-02T04:07:00Z,28.0256,-89.2092,22.2,22.0,11111222
Shell,ioos:station:wmo:42403:2,2024-04-02T04:17:00Z,28.0256,-89.2092,22.2,22.0,11111222
Shell,ioos:station:wmo:42403:2,2024-04-02T04:27:00Z,28.0256,-89.2092,22.2,22.0,11111222
Shell,ioos:station:wmo:42403:2,2024-04-02T04:37:00Z,28.0256,-89.2092,22.2,22.0,11111222
Shell,ioos:station:wmo:42403:2,2024-04-02T04:47:00Z,28.0256,-89.2092,22.2,22.1,11111222
Shell,ioos:station:wmo:42403:2,2024-04-02T04:57:00Z,28.0256,-89.2092,22.2,22.1,11111222
Shell,ioos:station:wmo:42403:2,2024-04-02T05:07:00Z,28.0256,-89.2092,22.2,22.1,11111222
Shell,ioos:station:wmo:42403:2,2024-04-02T05:17:00Z,28.0256,-89.2092,22.2,22.1,11111222
Shell,ioos:station:wmo:42403:2,2024-04-02T05:27:00Z,28.0256,-89.2092,22.2,22.1,11111222
Shell,ioos:station:wmo:42403:2,2024-04-02T05:37:00Z,28.0256,-89.2092,22.2,22.1,11111222
Shell,ioos:station:wmo:42403:2,2024-04-02T05:47:00Z,28.0256,-89.2092,22.2,22.1,11111222
Shell,ioos:station:wmo:42403:2,2024-04-02T05:57:00Z,28.0256,-89.2092,22.2,22.2,11111222
Shell,ioos:station:wmo:42403:2,2024-04-02T06:07:00Z,28.0256,-89.2092,22.2,22.2,11111222
Shell,ioos:station:wmo:42403:2,2024-04-02T06:17:00Z,28.0256,-89.2092,22.2,22.3,11111222
Shell,ioos:station:wmo:42403:2,2024-04-02T06:27:00Z,28.0256,-89.2092,22.2,22.4,11111222
Shell,ioos:station:wmo:42403:2,2024-04-02T06:37:00Z,28.0256,-89.2092,22.2,22.4,11111222
Shell,ioos:station:wmo:42403:2,2024-04-02T06:57:00Z,28.0256,-89.2092,22.2,22.5,11111222
Shell,ioos:station:wmo:42403:2,2024-04-02T07:07:00Z,28.0256,-89.2092,22.2,22.5,11111222
Shell,ioos:station:wmo:42403:2,2024-04-02T07:17:00Z,28.0256,-89.2092,22.2,22.6,11111222
Shell,ioos:station:wmo:42403:2,2024-04-02T07:27:00Z,28.0256,-89.2092,22.2,22.6,11111222
Shell,ioos:station:wmo:42403:2,2024-04-02T07:37:00Z,28.0256,-89.2092,22.2,22.6,11111222
Shell,ioos:station:wmo:42403:2,2024-04-02T07:47:00Z,28.0256,-89.2092,22.2,22.6,11111222
Shell,ioos:station:wmo:42403:2,2024-04-02T07:57:00Z,28.0256,-89.2092,22.2,22.6,11111222
Shell,ioos:station:wmo:42403:2,2024-04-02T08:07:00Z,28.0256,-89.2092,22.2,22.6,11111222
Shell,ioos:station:wmo:42403:2,2024-04-02T08:17:00Z,28.0256,-89.2092,22.2,22.6,11111222
Shell,ioos:station:wmo:42403:2,2024-04-02T08:27:00Z,28.0256,-89.2092,22.2,22.6,11111222
Shell,ioos:station:wmo:42403:2,2024-04-02T08:47:00Z,28.0256,-89.2092,22.2,22.7,11111222
Shell,ioos:station:wmo:42403:2,2024-04-02T08:57:00Z,28.0256,-89.2092,22.2,22.7,11111222
Shell,ioos:station:wmo:42403:2,2024-04-02T09:07:00Z,28.0256,-89.2092,22.2,22.7,11111222
Shell,ioos:station:wmo:42403:2,2024-04-02T09:17:00Z,28.0256,-89.2092,22.2,22.7,11111222
Shell,ioos:station:wmo:42403:2,2024-04-02T09:27:00Z,28.0256,-89.2092,22.2,22.7,11111222
Shell,ioos:station:wmo:42403:2,2024-04-02T09:37:00Z,28.0256,-89.2092,22.2,22.7,11111222
Shell,ioos:station:wmo:42403:2,2024-04-02T09:47:00Z,28.0256,-89.2092,22.2,22.7,11111222
Shell,ioos:station:wmo:42403:2,2024-04-02T09:57:00Z,28.0256,-89.2092,22.2,22.7,11111222
Shell,ioos:station:wmo:42403:2,2024-04-02T10:07:00Z,28.0256,-89.2092,22.2,22.8,11111222
Shell,ioos:station:wmo:42403:2,2024-04-02T10:17:00Z,28.0256,-89.2092,22.2,22.8,11111222
Shell,ioos:station:wmo:42403:2,2024-04-02T10:37:00Z,28.0256,-89.2092,22.2,22.8,11111222
Shell,ioos:station:wmo:42403:2,2024-04-02T10:57:00Z,28.0256,-89.2092,22.2,22.8,11111222
Shell,ioos:station:wmo:42403:2,2024-04-02T11:27:00Z,28.0256,-89.2092,22.2,22.9,11111222
Shell,ioos:station:wmo:42403:2,2024-04-02T11:37:00Z,28.0256,-89.2092,22.2,22.9,11111222
Shell,ioos:station:wmo:42403:2,2024-04-02T12:27:00Z,28.0256,-89.2092,22.2,23.0,11111222
Shell,ioos:station:wmo:42403:2,2024-04-02T12:47:00Z,28.0256,-89.2092,22.2,23.0,11111222
Shell,ioos:station:wmo:42403:2,2024-04-02T12:57:00Z,28.0256,-89.2092,22.2,23.0,11111222
Shell,ioos:station:wmo:42403:2,2024-04-02T13:07:00Z,28.0256,-89.2092,22.3,23.1,11111222
Shell,ioos:station:wmo:42403:2,2024-04-02T13:27:00Z,28.0256,-89.2092,22.3,23.0,11111222
Shell,ioos:station:wmo:42403:2,2024-04-02T13:37:00Z,28.0256,-89.2092,22.2,23.0,11111222
Shell,ioos:station:wmo:42403:2,2024-04-02T13:47:00Z,28.0256,-89.2092,22.3,23.0,11111222
Shell,ioos:station:wmo:42403:2,2024-04-02T13:57:00Z,28.0256,-89.2092,22.3,23.0,11111222
Shell,ioos:station:wmo:42403:2,2024-04-02T14:07:00Z,28.0256,-89.2092,22.3,23.0,11111222
Shell,ioos:station:wmo:42403:2,2024-04-02T14:27:00Z,28.0256,-89.2092,22.3,23.0,11111222
Shell,ioos:station:wmo:42403:2,2024-04-02T14:37:00Z,28.0256,-89.2092,22.3,23.0,11111222
Shell,ioos:station:wmo:42403:2,2024-04-02T15:57:00Z,28.0256,-89.2092,22.3,22.9,11111222
Shell,ioos:station:wmo:42403:2,2024-04-02T16:07:00Z,28.0256,-89.2092,22.3,22.9,11111222
Shell,ioos:station:wmo:42403:2,2024-04-02T16:27:00Z,28.0256,-89.2092,22.3,23.0,11111222
Shell,ioos:station:wmo:42403:2,2024-04-02T16:37:00Z,28.0256,-89.2092,22.3,23.1,11111222
Shell,ioos:station:wmo:42403:2,2024-04-02T16:47:00Z,28.0256,-89.2092,22.3,23.1,11111222
Shell,ioos:station:wmo:42403:2,2024-04-02T16:57:00Z,28.0256,-89.2092,22.2,23.0,11111222
Shell,ioos:station:wmo:42403:2,2024-04-02T17:07:00Z,28.0256,-89.2092,22.3,23.1,11111222
Shell,ioos:station:wmo:42403:2,2024-04-02T17:17:00Z,28.0256,-89.2092,22.3,23.1,11111222
Shell,ioos:station:wmo:42403:2,2024-04-02T17:27:00Z,28.0256,-89.2092,22.3,23.2,11111222
Shell,ioos:station:wmo:42403:2,2024-04-02T17:37:00Z,28.0256,-89.2092,22.3,23.1,11111222
Shell,ioos:station:wmo:42403:2,2024-04-02T17:47:00Z,28.0256,-89.2092,22.3,23.1,11111222
Shell,ioos:station:wmo:42403:2,2024-04-02T17:57:00Z,28.0256,-89.2092,22.3,23.1,11111222
Shell,ioos:station:wmo:42403:2,2024-04-02T18:07:00Z,28.0256,-89.2092,22.3,23.1,11111222
Shell,ioos:station:wmo:42403:2,2024-04-02T18:17:00Z,28.0256,-89.2092,22.3,23.1,11111222
Shell,ioos:station:wmo:42403:2,2024-04-02T18:27:00Z,28.0256,-89.2092,22.3,23.1,11111222
Shell,ioos:station:wmo:42403:2,2024-04-02T18:37:00Z,28.0256,-89.2092,22.3,23.1,11111222
Shell,ioos:station:wmo:42403:2,2024-04-02T18:47:00Z,28.0256,-89.2092,22.3,23.1,11111222
Shell,ioos:station:wmo:42403:2,2024-04-02T18:57:00Z,28.0256,-89.2092,22.2,23.1,11111222
Shell,ioos:station:wmo:42403:2,2024-04-02T19:07:00Z,28.0256,-89.2092,22.3,23.1,11111222
Shell,ioos:station:wmo:42403:2,2024-04-02T19:17:00Z,28.0256,-89.2092,22.2,23.1,11111222
Shell,ioos:station:wmo:42403:2,2024-04-02T19:27:00Z,28.0256,-89.2092,22.2,23.1,11111222
Shell,ioos:station:wmo:42403:2,2024-04-02T19:37:00Z,28.0256,-89.2092,22.2,23.0,11111222
Shell,ioos:station:wmo:42403:2,2024-04-02T19:47:00Z,28.0256,-89.2092,22.2,23.0,11111222
Shell,ioos:station:wmo:42403:2,2024-04-02T20:07:00Z,28.0256,-89.2092,22.2,22.9,11111222
Shell,ioos:station:wmo:42403:2,2024-04-02T20:27:00Z,28.0256,-89.2092,22.2,23.0,11111222
Shell,ioos:station:wmo:42403:2,2024-04-02T20:37:00Z,28.0256,-89.2092,22.2,23.0,11111222
Shell,ioos:station:wmo:42403:2,2024-04-02T20:47:00Z,28.0256,-89.2092,22.2,23.0,11111222
Shell,ioos:station:wmo:42403:2,2024-04-02T20:57:00Z,28.0256,-89.2092,22.2,22.9,11111222
Shell,ioos:station:wmo:42403:2,2024-04-02T21:07:00Z,28.0256,-89.2092,22.2,22.9,11111222
Shell,ioos:station:wmo:42403:2,2024-04-02T21:17:00Z,28.0256,-89.2092,22.2,22.8,11111222
Shell,ioos:station:wmo:42403:2,2024-04-02T21:27:00Z,28.0256,-89.2092,22.2,22.8,11111222
Shell,ioos:station:wmo:42403:2,2024-04-02T21:37:00Z,28.0256,-89.2092,22.2,22.8,11111222
Shell,ioos:station:wmo:42403:2,2024-04-02T21:47:00Z,28.0256,-89.2092,22.2,22.7,11111222
Shell,ioos:station:wmo:42403:2,2024-04-02T21:57:00Z,28.0256,-89.2092,22.2,22.7,11111222
Shell,ioos:station:wmo:42403:2,2024-04-02T22:07:00Z,28.0256,-89.2092,22.2,22.7,11111222
Shell,ioos:station:wmo:42403:2,2024-04-02T22:17:00Z,28.0256,-89.2092,22.2,22.7,11111222
Shell,ioos:station:wmo:42403:2,2024-04-02T22:27:00Z,28.0256,-89.2092,22.2,22.6,11111222
Shell,ioos:station:wmo:42403:2,2024-04-02T22:37:00Z,28.0256,-89.2092,22.2,22.7,11111222
Shell,ioos:station:wmo:42403:2,2024-04-02T22:47:00Z,28.0256,-89.2092,22.2,22.7,11111222
Shell,ioos:station:wmo:42403:2,2024-04-02T22:57:00Z,28.0256,-89.2092,22.2,22.7,11111222
Shell,ioos:station:wmo:42403:2,2024-04-02T23:07:00Z,28.0256,-89.2092,22.2,22.7,11111222
Shell,ioos:station:wmo:42403:2,2024-04-02T23:17:00Z,28.0256,-89.2092,22.2,22.7,11111222
Shell,ioos:station:wmo:42403:2,2024-04-02T23:27:00Z,28.0256,-89.2092,22.2,22.7,11111222
Shell,ioos:station:wmo:42403:2,2024-04-02T23:37:00Z,28.0256,-89.2092,22.2,22.7,11111222
Shell,ioos:station:wmo:42403:2,2024-04-02T23:47:00Z,28.0256,-89.2092,22.2,22.7,11111222
Shell,ioos:station:wmo:42403:2,2024-04-02T23:57:00Z,28.0256,-89.2092,22.2,22.7,11111222
Shell,ioos:station:wmo:42403:2,2024-04-03T00:07:00Z,28.0256,-89.2092,22.2,22.7,11111222
Shell,ioos:station:wmo:42403:2,2024-04-03T00:17:00Z,28.0256,-89.2092,22.2,22.8,11111222
Shell,ioos:station:wmo:42403:2,2024-04-03T00:27:00Z,28.0256,-89.2092,22.2,22.8,11111222
Shell,ioos:station:wmo:42403:2,2024-04-03T00:37:00Z,28.0256,-89.2092,22.2,22.8,11111222
Shell,ioos:station:wmo:42403:2,2024-04-03T00:47:00Z,28.0256,-89.2092,22.2,22.9,11111222
Shell,ioos:station:wmo:42403:2,2024-04-03T00:57:00Z,28.0256,-89.2092,22.2,22.9,11111222
Shell,ioos:station:wmo:42403:2,2024-04-03T01:07:00Z,28.0256,-89.2092,22.2,22.9,11111222
Shell,ioos:station:wmo:42403:2,2024-04-03T01:17:00Z,28.0256,-89.2092,22.2,22.9,11111222
Shell,ioos:station:wmo:42403:2,2024-04-03T01:27:00Z,28.0256,-89.2092,22.2,22.9,11111222
Shell,ioos:station:wmo:42403:2,2024-04-03T01:37:00Z,28.0256,-89.2092,22.2,23.0,11111222
Shell,ioos:station:wmo:42403:2,2024-04-03T01:47:00Z,28.0256,-89.2092,22.2,23.0,11111222
Shell,ioos:station:wmo:42403:2,2024-04-03T01:57:00Z,28.0256,-89.2092,22.2,23.0,11111222
Shell,ioos:station:wmo:42403:2,2024-04-03T02:07:00Z,28.0256,-89.2092,22.2,23.0,11111222
Shell,ioos:station:wmo:42403:2,2024-04-03T02:17:00Z,28.0256,-89.2092,22.2,23.1,11111222
Shell,ioos:station:wmo:42403:2,2024-04-03T02:27:00Z,28.0256,-89.2092,22.2,23.1,11111222
Shell,ioos:station:wmo:42403:2,2024-04-03T02:37:00Z,28.0256,-89.2092,22.2,23.1,11111222
Shell,ioos:station:wmo:42403:2,2024-04-03T02:47:00Z,28.0256,-89.2092,22.2,23.1,11111222
Shell,ioos:station:wmo:42403:2,2024-04-03T02:57:00Z,28.0256,-89.2092,22.2,23.1,11111222
Shell,ioos:station:wmo:42403:2,2024-04-03T03:07:00Z,28.0256,-89.2092,22.2,23.1,11111222
Shell,ioos:station:wmo:42403:2,2024-04-03T03:17:00Z,28.0256,-89.2092,22.2,23.1,11111222
Shell,ioos:station:wmo:42403:2,2024-04-03T03:27:00Z,28.0256,-89.2092,22.2,23.1,11111222
Shell,ioos:station:wmo:42403:2,2024-04-03T03:37:00Z,28.0256,-89.2092,22.2,23.1,11111222
Shell,ioos:station:wmo:42403:2,2024-04-03T03:47:00Z,28.0256,-89.2092,22.2,23.1,11111222